Weather Roundup
Issued by NWS

Home | Current Version | Previous Version | Text Only | Print | Product List | Glossary On
Versions: 1 2 3 4 5 6 7 8 9 10 11 12 13 14 15 16 17 18 19 20 21 22 23 24 25 26 27 28 29 30 31 32 33 34 35 36 37 38 39 40 41 42 43 44 45 46 47 48 49 50
004
NZUS93 KARX 171359
HRRWXR

CURRENT HOURLY OBSERVATIONS ACROSS
MUCH OF THE UPPER MISSISSIPPI VALLEY
NATIONAL WEATHER SERVICE LA CROSSE WI
900 AM CDT THU AUG 17 2017


...SOUTHEAST MINNESOTA...


CITY           SKY/WX    TMP DP  RH WIND       PRES   REMARKS
ROCHESTER      LGT RAIN  64  64 100 W20G29    29.60R FOG
ROCHESTER/MAYO CLOUDY    64  64 100 W18G30    29.58R
WINONA         CLOUDY    70  63  78 SW9G21    29.56S
AUSTIN         DRIZZLE   64  63  94 W14G26    29.64S
ALBERT LEA     RAIN      66  66 100 W9G20     29.66R
DODGE CENTER   DRIZZLE   63  63 100 W16G23    29.60R
PRESTON        CLOUDY    64  62  91 SW16G28   29.63R FOG
OWATONNA       DRIZZLE   64  63  94 W16G22    29.61R
FARIBAULT      CLOUDY    64  63  94 W14G22    29.59R
$$

...ELSEWHERE IN MINNESOTA...


CITY           SKY/WX    TMP DP  RH WIND       PRES   REMARKS
MINNEAPOLIS    CLOUDY    68  65  90 NW12      29.55R
INTNL FALLS    LGT RAIN  59  57  93 NE8       29.77F
DULUTH         DRZL/FOG  59  59 100 NE10      29.64S VSB 3/4
RED WING       CLOUDY    68  64  88 W12G18    29.50R
REDWOOD FALLS  CLOUDY    66  62  87 NW14G23   29.73R
MANKATO        LGT RAIN  65  63  93 NW21      29.64R
WORTHINGTON    CLOUDY    63  60  90 W17       29.82R
FAIRMONT       CLOUDY    67  63  87 W17G26    29.73S
$$

...SOUTHWEST WISCONSIN...


CITY           SKY/WX    TMP DP  RH WIND       PRES   REMARKS
LA CROSSE      CLOUDY    73  64  73 S13G24    29.59S
PRAIRIE DU CHI CLOUDY    69  64  82 S10       29.68S
BOSCOBEL       CLOUDY    70  64  81 SW8G16    29.68S
LONE ROCK      NOT AVBL
PLATTEVILLE    CLOUDY    68  67  96 SW15G21   29.73S
FORT MC COY    CLOUDY    67  64  87 S14       29.62F
MAUSTON-NEW LI CLOUDY    69  65  86 S9G18     29.64S FOG
VIROQUA        CLOUDY    67  66  96 SW13G20   29.65F
WIS DELLS      CLOUDY    69  64  83 SW10G17   29.68S
$$

...ELSEWHERE IN WISCONSIN...


CITY           SKY/WX    TMP DP  RH WIND       PRES   REMARKS
MILWAUKEE      CLOUDY    74  71  91 S14       29.73S
MADISON        PTSUNNY   74  69  85 SW7       29.69S
GREEN BAY      PTSUNNY   75  73  93 S10       29.66S
EAU CLAIRE     RAIN      66  64  93 SE12      29.51F VSB 1
BLACK RVR FLS  CLOUDY    69  67  93 S7        29.58F
MEDFORD        DRIZZLE   64  63  96 S5        29.61F
WAUSAU         CLOUDY    68  64  87 S13       29.61S
WIS RAPIDS     CLOUDY    69  65  86 S13       29.65S
MARSHFIELD     CLOUDY    67  63  87 S13       29.61S
RICE LAKE      RAIN      66  65  97 E6        29.57F
$$

...NORTHEAST IOWA...


CITY           SKY/WX    TMP DP  RH WIND       PRES   REMARKS
WATERLOO       MOSUNNY   71  64  78 W15G28    29.72S
DUBUQUE        CLOUDY    68  64  87 SW14G23   29.74S
DECORAH        PTSUNNY   70  64  83 SW10G21   29.65S
MASON CITY     CLOUDY    68  63  84 W21G31    29.73R
CHARLES CITY   CLOUDY    70  64  83 SW14G28   29.69F
OELWEIN        CLOUDY    70  66  88 W15G24    29.72S
$$

...ELSEWHERE IN IOWA...


CITY           SKY/WX    TMP DP  RH WIND       PRES   REMARKS
DES MOINES     MOSUNNY   72  64  76 W16G22    29.80S
IOWA CITY      MOSUNNY   73  65  75 W10       29.78F
FORT DODGE     CLOUDY    66  63  88 W13G22    29.80S
MARSHALLTOWN   CLOUDY    69  66  90 W14       29.76S
CEDAR RAPIDS   CLOUDY    69  65  86 W13       29.75F
$$

...NORTHERN ILLINOIS...


CITY           SKY/WX    TMP DP  RH WIND       PRES   REMARKS
CHICAGO-OHARE  CLOUDY    74  69  85 S12       29.76F
CHICAGO-MIDWAY CLOUDY    73  70  90 S12G20    29.78F
MOLINE         PTSUNNY   75  67  76 SW10G21   29.76F
ROCKFORD       CLOUDY    74  69  85 SW9G21    29.76S
PEORIA         CLOUDY    72  69  90 SW13      29.81F
$$

NOTE: "FAIR" INDICATES FEW OR NO CLOUDS BELOW 12,000 FEET WITH NO
SIGNIFICANT WEATHER AND/OR OBSTRUCTIONS TO VISIBILITY. WIND
SPEEDS ARE IN MILES-PER-HOUR.




USA.gov is the U.S. government's official web portal to all federal, state and local government web resources and services.